{"data":{"norad_id":52126,"epoch":"2026-05-25T03:19:04.575360Z","epoch_age_seconds":63029,"freshness":"FRESH","line1":"1 52126U 22029AQ  26145.13824740 -.00002624  00000+0 -14678-3 0  9992","line2":"2 52126  53.2130  85.9295 0001421  87.6558 272.4596 15.08850292232469","mean_motion":15.08850292,"eccentricity":0.0001421,"inclination_deg":53.213,"raan_deg":85.9295,"arg_perigee_deg":87.6558,"mean_anomaly_deg":272.4596,"bstar":-0.00014678,"rev_number":23246,"period_min":95.436903689846,"perigee_km":538.72890428326,"apogee_km":540.69495694934,"semimajor_km":6917.8489306163,"source":"CELESTRAK","updated_at":"2026-05-25T13:38:17.076650Z"}}